ChubuSat-3 (41339 NORAD) Tracking and Keplerian Element Data

This shows tracking and keplerian element data for the satellite.

Feedback or suggestion? Click here.




ElementValue
Catalog41339
NameChubuSat-3
Epoch Orbit17370
Epoch Day108.45302445
Epoch Year2019
RAAN172.1193
Inclination31.0094
Eccentricity0.001328
Argument of Perigee224.7623
Mean Anonmoly135.1958
Mean Motion15.00302859
Decay Rate3.25E-06
L11 41339U 16012C 19108.45302445 .00000325 00000-0 18449-4 0 9996
L22 41339 31.0094 172.1193 0013280 224.7623 135.1958 15.00302859173706

Live tracking and technical data element details for ChubuSat-3 (NORAD 41339). ChubuSat-3 can be tracked NOW for your location showing map with azimuth and elevation plus other details from your city location.

Track the satellite on the map from your city or location and see movement details for azimuth, elevation, latitude, longitude, range, height, and movement on the map or in text.







IsCatalogInMostPopularTable: catalog: 41339, numindb: 194
Update: records affected: 1



GetName: 41339 ChubuSat-3

Hit Count: updated at: Tue, 23 Apr 2019 06:48:33 GMT